CW6451 Weather Reports


Display with metric or nautical units.
time (UTC)temp
F
wind
direction
speed
MPH
gust
MPH
rain 1hr
in
rain 24hr
in
rain mn
in
humidity
%
barometer
mb
20180620075334 59 237 0.0 0.0 0.00 0.04 0.00 81 1010.7
20180620074833 59 237 0.0 0.0 0.00 0.04 0.00 80 1010.8
20180620074330 60 237 0.0 0.0 0.00 0.04 0.00 79 1010.8
20180620073833 60 237 0.0 0.0 0.00 0.04 0.00 78 1010.8
20180620073330 60 237 0.0 0.0 0.00 0.04 0.00 76 1010.8
20180620072819 61 237 0.0 2.0 0.00 0.04 0.00 76 1010.8
20180620072350 61 237 0.0 2.0 0.00 0.04 0.00 74 1010.8
20180620071823 61 237 0.0 0.0 0.00 0.04 0.00 73 1010.8
20180620071330 62 237 0.0 0.0 0.00 0.04 0.00 72 1010.7
20180620070825 62 237 0.0 0.0 0.00 0.04 0.00 72 1010.9
20180620070327 63 237 0.0 0.0 0.00 0.04 0.00 73 1010.8
20180620065834 63 237 0.0 0.0 0.00 0.04 0.00 70 1010.6
20180620065325 63 238 0.0 0.0 0.00 0.04 0.00 68 1010.6
20180620064825 64 238 0.0 0.0 0.00 0.04 0.00 67 1010.6
20180620064323 64 238 0.0 2.0 0.00 0.04 0.00 68 1010.7
20180620063832 64 238 0.0 3.0 0.00 0.04 0.00 66 1010.7
20180620063328 65 240 2.0 5.0 0.00 0.04 0.00 65 1010.7
20180620062825 65 246 1.0 7.0 0.00 0.04 0.00 65 1010.7
20180620062334 65 234 3.0 7.0 0.00 0.04 0.00 64 1010.6
20180620061833 65 233 0.0 5.0 0.00 0.04 0.00 64 1010.7
20180620061329 65 261 4.0 7.0 0.00 0.04 0.00 64 1010.8
20180620060838 65 246 3.0 8.0 0.00 0.04 0.00 64 1010.7
20180620060328 65 269 4.0 8.0 0.00 0.04 0.00 64 1010.6
20180620055836 65 240 5.0 9.0 0.00 0.04 0.00 63 1010.7
20180620055323 65 240 6.0 9.0 0.00 0.04 0.00 63 1010.7
20180620054821 65 236 4.0 9.0 0.00 0.04 0.00 63 1010.8
20180620054335 66 263 4.0 6.0 0.00 0.04 0.00 62 1010.8
20180620053825 66 240 1.0 8.0 0.00 0.04 0.00 61 1010.7
20180620053323 66 262 4.0 9.0 0.00 0.04 0.00 61 1010.5
20180620052824 66 222 5.0 11.0 0.00 0.04 0.00 61 1010.5
20180620052332 66 273 5.0 11.0 0.00 0.04 0.00 60 1010.6
20180620051833 66 211 7.0 11.0 0.00 0.04 0.00 60 1010.6
20180620051335 66 252 6.0 10.0 0.00 0.04 0.00 59 1010.8
20180620050825 67 229 4.0 9.0 0.00 0.04 0.00 59 1010.7
20180620050322 67 229 5.0 8.0 0.00 0.04 0.00 58 1010.7
20180620045828 67 221 5.0 8.0 0.00 0.04 0.00 58 1010.8
20180620045325 67 226 5.0 10.0 0.00 0.04 0.00 58 1010.8
20180620044823 67 237 5.0 9.0 0.00 0.04 0.00 57 1010.8
20180620044322 67 239 5.0 10.0 0.00 0.04 0.04 57 1010.9
20180620043819 67 211 6.0 10.0 0.00 0.04 0.04 57 1011.0
20180620043329 67 215 5.0 7.0 0.00 0.04 0.04 58 1010.9
20180620042826 67 213 5.0 7.0 0.00 0.04 0.04 58 1010.8
20180620042334 67 240 1.0 9.0 0.00 0.04 0.04 57 1010.9
20180620041832 67 232 5.0 9.0 0.00 0.04 0.04 57 1010.8
20180620041323 68 234 5.0 11.0 0.00 0.04 0.04 57 1010.8
20180620040832 68 251 4.0 11.0 0.00 0.04 0.04 56 1010.9
20180620040329 68 234 4.0 7.0 0.00 0.04 0.04 57 1010.8
20180620035823 68 211 2.0 7.0 0.00 0.04 0.04 56 1010.7
20180620035332 68 226 2.0 7.0 0.00 0.04 0.04 56 1010.8
20180620034831 68 246 4.0 7.0 0.00 0.04 0.04 56 1010.6
20180620034324 68 228 4.0 6.0 0.00 0.05 0.04 56 1010.6
20180620033825 68 238 3.0 8.0 0.00 0.05 0.04 56 1010.7
20180620033322 68 220 4.0 7.0 0.00 0.05 0.04 56 1010.6
20180620032831 69 217 5.0 6.0 0.00 0.05 0.04 56 1010.6
20180620032328 69 261 3.0 8.0 0.00 0.05 0.04 55 1010.7
20180620031832 69 251 4.0 8.0 0.00 0.05 0.04 55 1010.5
20180620031321 69 232 4.0 7.0 0.00 0.05 0.04 55 1010.5
20180620030820 69 255 3.0 10.0 0.00 0.05 0.04 55 1010.5
20180620030323 69 240 4.0 10.0 0.00 0.05 0.04 55 1010.4
20180620025829 69 267 6.0 8.0 0.00 0.05 0.04 56 1010.4
20180620025327 69 261 4.0 8.0 0.00 0.05 0.04 57 1010.4
20180620024837 69 221 5.0 8.0 0.00 0.05 0.04 57 1010.3
20180620024329 69 252 2.0 7.0 0.00 0.07 0.04 58 1010.3
20180620023838 69 251 3.0 5.0 0.00 0.07 0.04 58 1010.4
20180620023335 69 273 3.0 6.0 0.00 0.07 0.04 58 1010.2
20180620022833 70 245 3.0 6.0 0.00 0.07 0.04 57 1010.3
20180620022322 70 244 4.0 7.0 0.00 0.07 0.04 58 1010.2
20180620021822 70 229 2.0 6.0 0.00 0.07 0.04 58 1010.1
20180620021318 70 236 3.0 6.0 0.00 0.07 0.04 57 1010.2
20180620020827 70 240 3.0 5.0 0.00 0.07 0.04 57 1010.1
20180620020326 70 232 2.0 5.0 0.00 0.07 0.04 56 1010.0
20180620015826 71 214 1.0 7.0 0.00 0.07 0.04 56 1010.0
20180620015336 71 219 4.0 9.0 0.00 0.07 0.04 56 1010.0
20180620014834 70 230 4.0 10.0 0.00 0.07 0.04 57 1009.8
20180620014337 70 230 6.0 10.0 0.00 0.07 0.04 58 1009.7
20180620013825 70 259 4.0 8.0 0.00 0.07 0.04 60 1009.7
20180620013321 69 236 4.0 5.0 0.00 0.07 0.04 62 1009.5
20180620012826 70 244 2.0 4.0 0.00 0.07 0.04 64 1009.4
20180620012324 69 244 3.0 5.0 0.00 0.07 0.04 63 1009.3
20180620011823 69 225 1.0 5.0 0.00 0.07 0.04 64 1009.1
20180620011325 70 224 0.0 0.0 0.00 0.07 0.04 65 1009.2
20180620010822 70 208 0.0 0.0 0.00 0.07 0.04 65 1009.3
20180620010331 70 208 0.0 3.0 0.00 0.07 0.04 66 1009.1
20180620005824 71 208 1.0 4.0 0.00 0.07 0.04 65 1008.9
20180620005322 71 225 1.0 5.0 0.00 0.07 0.04 64 1008.9
20180620004832 71 225 2.0 5.0 0.00 0.07 0.04 64 1008.8
20180620004328 72 202 0.0 0.0 0.00 0.07 0.04 64 1008.8
20180620003826 72 200 0.0 0.0 0.00 0.07 0.04 65 1008.8
20180620003331 72 215 0.0 0.0 0.00 0.07 0.04 64 1008.7
20180620002825 73 207 0.0 6.0 0.00 0.07 0.04 65 1008.6
20180620002328 73 194 3.0 6.0 0.00 0.07 0.04 63 1008.5
20180620001838 73 216 3.0 6.0 0.00 0.07 0.04 61 1008.5
20180620001335 74 186 3.0 6.0 0.00 0.07 0.04 62 1008.4
20180620000838 74 203 2.0 5.0 0.00 0.07 0.04 61 1008.3
20180620000327 74 192 0.0 3.0 0.00 0.07 0.04 60 1008.2
20180619235820 75 199 0.0 0.0 0.00 0.07 0.04 60 1008.2
20180619235328 75 186 0.0 0.0 0.00 0.07 0.04 60 1008.2
20180619234827 76 196 0.0 3.0 0.00 0.07 0.04 59 1008.2
20180619234325 76 176 0.0 5.0 0.00 0.07 0.04 58 1008.2
20180619233836 76 198 3.0 7.0 0.00 0.07 0.04 56 1008.2
20180619233329 77 209 1.0 7.0 0.00 0.07 0.04 56 1008.1
20180619232819 77 190 2.0 6.0 0.00 0.07 0.04 56 1008.1
20180619232335 78 203 1.0 5.0 0.00 0.07 0.04 55 1008.1
20180619231825 78 191 0.0 5.0 0.00 0.07 0.04 54 1007.9
20180619231322 79 202 0.0 7.0 0.00 0.07 0.04 54 1007.8
20180619230820 79 205 1.0 7.0 0.00 0.07 0.04 51 1007.9
20180619230329 80 165 3.0 7.0 0.00 0.07 0.04 50 1007.8
20180619225824 81 206 1.0 7.0 0.00 0.07 0.04 50 1007.8
20180619225319 81 175 0.0 5.0 0.00 0.07 0.04 50 1007.8
20180619224829 81 213 0.0 6.0 0.00 0.07 0.04 52 1007.8
20180619224328 81 209 2.0 9.0 0.00 0.07 0.04 50 1007.8
20180619223829 82 202 1.0 9.0 0.00 0.07 0.04 49 1007.8
20180619223334 82 177 2.0 8.0 0.00 0.07 0.04 48 1007.8
20180619222833 82 193 2.0 9.0 0.00 0.07 0.04 46 1007.7
20180619222330 82 236 2.0 9.0 0.00 0.07 0.04 46 1007.7
20180619221820 82 225 0.0 8.0 0.00 0.07 0.04 46 1007.5
20180619221336 82 207 0.0 8.0 0.00 0.07 0.04 46 1007.4
20180619220820 82 188 1.0 11.0 0.00 0.07 0.04 46 1007.4
20180619220338 82 188 4.0 11.0 0.00 0.07 0.04 45 1007.3
20180619215823 82 227 4.0 12.0 0.00 0.07 0.04 45 1007.3
20180619215326 83 219 4.0 11.0 0.00 0.07 0.04 45 1007.3
20180619214823 83 219 4.0 11.0 0.00 0.07 0.04 44 1007.3
20180619214332 83 169 1.0 10.0 0.00 0.07 0.04 45 1007.3
20180619213828 83 194 3.0 9.0 0.00 0.07 0.04 44 1007.1
20180619213326 83 200 4.0 9.0 0.00 0.07 0.04 43 1007.1
20180619212834 83 230 3.0 9.0 0.00 0.07 0.04 44 1007.1
20180619212330 83 169 3.0 10.0 0.00 0.07 0.04 44 1007.1
20180619211825 83 213 3.0 11.0 0.00 0.07 0.04 43 1007.0
20180619211334 83 192 6.0 11.0 0.00 0.07 0.04 42 1007.1
20180619210830 84 210 1.0 12.0 0.00 0.07 0.04 45 1007.1
20180619210328 84 194 3.0 12.0 0.00 0.07 0.04 44 1007.1
20180619205833 84 152 5.0 11.0 0.00 0.07 0.04 44 1007.0
20180619205329 84 188 5.0 13.0 0.00 0.07 0.04 44 1007.0
20180619204827 84 192 6.0 13.0 0.00 0.07 0.04 43 1006.9
20180619204336 85 220 4.0 13.0 0.00 0.07 0.04 44 1007.0
20180619203826 84 193 3.0 10.0 0.00 0.07 0.04 44 1006.9
20180619203324 84 250 3.0 10.0 0.00 0.07 0.04 42 1006.8
20180619202833 84 197 3.0 12.0 0.00 0.07 0.04 44 1006.8
20180619202329 84 234 5.0 12.0 0.00 0.07 0.04 43 1006.9
20180619201821 84 220 6.0 12.0 0.00 0.07 0.04 43 1006.9
20180619201324 84 239 3.0 13.0 0.00 0.07 0.04 44 1006.9
20180619200836 84 217 3.0 12.0 0.00 0.07 0.04 45 1006.9
20180619200333 84 210 3.0 12.0 0.00 0.07 0.04 45 1006.8
20180619195829 85 202 5.0 12.0 0.00 0.07 0.04 46 1006.8
20180619195327 85 207 4.0 12.0 0.00 0.07 0.04 44 1006.8
20180619194837 85 192 4.0 12.0 0.00 0.07 0.04 43 1006.8
20180619194329 85 192 2.0 11.0 0.00 0.07 0.04 44 1006.8
20180619193826 86 232 3.0 10.0 0.00 0.07 0.04 45 1006.8
20180619193327 86 207 3.0 11.0 0.00 0.07 0.04 44 1006.8
20180619192825 86 128 3.0 11.0 0.00 0.07 0.04 44 1006.7
20180619192330 86 187 5.0 11.0 0.00 0.07 0.04 45 1006.7
20180619191829 86 198 2.0 8.0 0.00 0.07 0.04 45 1006.7
20180619191337 85 174 1.0 7.0 0.00 0.07 0.04 47 1006.7
20180619190828 85 236 3.0 10.0 0.00 0.07 0.04 44 1006.7
20180619190325 85 223 3.0 10.0 0.00 0.07 0.04 45 1006.7
20180619185830 85 199 1.0 15.0 0.00 0.07 0.04 44 1006.6
20180619185327 85 225 8.0 15.0 0.00 0.07 0.04 43 1006.6
20180619184820 85 257 4.0 12.0 0.00 0.07 0.04 43 1006.5
20180619184324 85 216 5.0 10.0 0.00 0.07 0.04 43 1006.5
20180619183834 85 232 3.0 11.0 0.00 0.07 0.04 43 1006.5
20180619183324 85 231 5.0 11.0 0.00 0.07 0.04 41 1006.5
20180619182823 85 226 3.0 14.0 0.00 0.07 0.04 44 1006.5
20180619182320 85 208 6.0 14.0 0.00 0.07 0.04 42 1006.5
20180619181829 85 269 5.0 11.0 0.00 0.07 0.04 44 1006.5
20180619181332 84 238 1.0 14.0 0.00 0.07 0.04 43 1006.5
20180619180823 84 207 6.0 12.0 0.00 0.07 0.04 44 1006.6
20180619180330 84 234 8.0 15.0 0.00 0.07 0.04 44 1006.5
20180619175830 84 222 8.0 15.0 0.00 0.07 0.04 43 1006.5
20180619175327 83 234 8.0 16.0 0.00 0.07 0.04 43 1006.5
20180619174835 83 229 4.0 16.0 0.00 0.07 0.04 47 1006.6
20180619174332 83 224 6.0 12.0 0.00 0.07 0.04 48 1006.6
20180619173836 83 204 5.0 14.0 0.00 0.07 0.04 48 1006.6
20180619173326 82 226 8.0 18.0 0.00 0.07 0.04 48 1006.5
20180619172836 83 227 7.0 18.0 0.00 0.07 0.04 49 1006.6
20180619172319 83 212 9.0 17.0 0.00 0.07 0.04 49 1006.6
20180619171825 83 182 5.0 15.0 0.00 0.07 0.04 47 1006.5
20180619171327 84 228 7.0 15.0 0.00 0.07 0.04 48 1006.5
20180619170826 84 173 5.0 11.0 0.00 0.07 0.04 52 1006.4
20180619170324 84 163 3.0 10.0 0.00 0.07 0.04 54 1006.4
20180619165819 84 200 2.0 10.0 0.00 0.07 0.04 54 1006.5
20180619165322 84 169 1.0 10.0 0.00 0.07 0.04 57 1006.4
20180619164820 84 164 3.0 9.0 0.00 0.07 0.04 56 1006.5
20180619164329 84 229 1.0 10.0 0.00 0.07 0.04 57 1006.4
20180619163832 83 229 3.0 11.0 0.00 0.07 0.04 56 1006.4
20180619163329 83 215 6.0 10.0 0.00 0.07 0.04 56 1006.4
20180619162828 83 234 5.0 10.0 0.00 0.07 0.04 58 1006.5
20180619162326 83 200 6.0 14.0 0.00 0.07 0.04 59 1006.5
20180619161826 83 268 5.0 14.0 0.00 0.07 0.04 59 1006.5
20180619161323 83 244 2.0 12.0 0.00 0.07 0.04 58 1006.5
20180619160832 82 184 6.0 12.0 0.00 0.07 0.04 58 1006.6
20180619160331 82 240 4.0 14.0 0.00 0.07 0.04 61 1006.5
20180619155835 82 247 9.0 14.0 0.00 0.07 0.04 57 1006.6
20180619155334 82 229 6.0 18.0 0.00 0.07 0.04 59 1006.5
20180619154833 82 207 6.0 17.0 0.00 0.07 0.04 60 1006.5
20180619154322 81 204 5.0 13.0 0.00 0.07 0.04 60 1006.5
20180619153819 81 225 8.0 14.0 0.00 0.07 0.04 59 1006.5
20180619153336 81 234 6.0 13.0 0.00 0.07 0.04 59 1006.5
20180619152824 81 205 5.0 13.0 0.00 0.07 0.04 62 1006.4
20180619152321 81 246 7.0 13.0 0.00 0.07 0.04 62 1006.5
20180619151818 80 200 3.0 14.0 0.00 0.07 0.04 61 1006.4
20180619151323 80 211 8.0 15.0 0.00 0.07 0.04 61 1006.4
20180619150820 80 218 8.0 15.0 0.00 0.07 0.04 59 1006.5
20180619150337 80 234 5.0 14.0 0.00 0.07 0.04 64 1006.4
20180619145837 79 186 6.0 18.0 0.00 0.07 0.04 62 1006.3
20180619145334 79 219 9.0 18.0 0.00 0.07 0.04 63 1006.4
20180619144823 79 232 8.0 13.0 0.00 0.07 0.04 64 1006.4
20180619144320 79 213 8.0 14.0 0.00 0.07 0.04 63 1006.4
20180619143837 79 227 6.0 12.0 0.00 0.07 0.04 65 1006.4
20180619143326 78 227 7.0 12.0 0.00 0.07 0.04 63 1006.4
20180619142823 78 227 6.0 15.0 0.00 0.07 0.04 66 1006.5
20180619142321 78 236 10.0 16.0 0.00 0.07 0.04 64 1006.6
20180619141830 78 223 7.0 12.0 0.00 0.07 0.04 65 1006.6
20180619141328 78 232 4.0 11.0 0.00 0.07 0.04 68 1006.5
20180619140837 78 250 6.0 15.0 0.00 0.07 0.04 68 1006.5
20180619140320 77 183 5.0 14.0 0.00 0.07 0.04 70 1006.5
20180619135834 77 215 6.0 15.0 0.00 0.07 0.04 71 1006.5
20180619135323 77 226 6.0 18.0 0.00 0.07 0.04 74 1006.3
20180619134821 77 207 8.0 18.0 0.00 0.07 0.04 73 1006.3
20180619134324 76 248 6.0 18.0 0.00 0.07 0.04 79 1006.2
20180619133831 76 190 6.0 18.0 0.00 0.07 0.04 80 1006.3
20180619133329 76 223 7.0 18.0 0.00 0.07 0.04 81 1006.3
20180619132832 75 196 9.0 17.0 0.00 0.07 0.04 81 1006.2
20180619132330 75 224 7.0 17.0 0.00 0.07 0.04 81 1006.2
20180619131821 75 240 9.0 17.0 0.00 0.07 0.04 80 1006.1
20180619131337 75 228 6.0 18.0 0.00 0.07 0.04 80 1006.0
20180619130830 75 219 11.0 18.0 0.00 0.07 0.04 80 1006.0
20180619130321 75 216 11.0 18.0 0.00 0.07 0.04 80 1006.0
20180619125820 75 240 9.0 18.0 0.00 0.07 0.04 81 1006.0
20180619125318 75 245 9.0 17.0 0.00 0.07 0.04 82 1006.1
20180619124836 75 264 8.0 15.0 0.00 0.07 0.04 84 1006.0
20180619124334 74 223 8.0 14.0 0.00 0.07 0.04 87 1005.8
20180619123837 74 253 7.0 15.0 0.00 0.07 0.04 88 1005.7
20180619123334 74 223 8.0 14.0 0.00 0.07 0.04 90 1005.6
20180619122822 74 216 7.0 12.0 0.00 0.07 0.04 92 1005.4
20180619122326 74 245 6.0 16.0 0.00 0.07 0.04 93 1005.4
20180619121832 73 225 8.0 15.0 0.00 0.07 0.04 94 1005.5
20180619121321 73 218 7.0 12.0 0.00 0.07 0.04 95 1005.4
20180619120834 73 227 7.0 12.0 0.00 0.07 0.04 96 1005.2
20180619120337 73 223 5.0 11.0 0.00 0.07 0.04 96 1005.2
20180619115824 73 227 6.0 11.0 0.00 0.07 0.04 96 1005.0
20180619115322 73 218 4.0 11.0 0.00 0.07 0.04 97 1005.0
20180619114827 73 214 3.0 9.0 0.00 0.07 0.04 97 1005.1
20180619114336 73 227 3.0 8.0 0.00 0.07 0.04 97 1005.0
20180619113826 72 294 4.0 9.0 0.00 0.07 0.04 97 1005.0
20180619113328 72 226 5.0 11.0 0.00 0.07 0.04 97 1004.9
20180619112818 72 203 5.0 11.0 0.00 0.07 0.04 97 1004.9
20180619112335 72 232 5.0 8.0 0.00 0.07 0.04 97 1004.8
20180619111820 72 223 5.0 8.0 0.00 0.07 0.04 97 1004.7
20180619111330 71 216 3.0 7.0 0.00 0.07 0.04 97 1004.6
20180619110829 71 250 2.0 5.0 0.00 0.07 0.04 97 1004.5
20180619110333 71 226 2.0 5.0 0.00 0.07 0.04 97 1004.5
20180619105828 71 234 2.0 5.0 0.00 0.07 0.04 98 1004.4
20180619105326 70 210 2.0 5.0 0.00 0.07 0.04 97 1004.3
20180619104837 70 223 3.0 5.0 0.00 0.07 0.04 97 1004.2
20180619104334 69 211 0.0 1.0 0.00 0.07 0.04 97 1004.2
20180619103833 69 211 0.0 3.0 0.00 0.07 0.04 98 1004.2
20180619103321 69 211 2.0 3.0 0.00 0.07 0.04 97 1004.3
20180619102832 68 210 0.0 3.0 0.00 0.07 0.04 97 1004.2
20180619102335 68 210 1.0 3.0 0.00 0.07 0.04 97 1004.1
20180619101833 68 271 0.0 3.0 0.00 0.07 0.04 97 1004.0
20180619101321 67 170 1.0 3.0 0.00 0.07 0.04 97 1003.9
20180619100824 67 52 0.0 0.0 0.01 0.07 0.04 97 1004.0
20180619100321 67 52 0.0 0.0 0.01 0.07 0.04 97 1003.8
20180619095827 67 52 0.0 0.0 0.01 0.07 0.04 97 1003.7
20180619095324 67 52 0.0 0.0 0.01 0.07 0.04 97 1003.7
20180619094831 67 52 0.0 0.0 0.01 0.07 0.04 97 1003.7
20180619094322 66 52 0.0 0.0 0.02 0.07 0.04 97 1003.6
20180619093820 66 52 0.0 0.0 0.04 0.07 0.04 97 1003.6
20180619093331 66 52 0.0 0.0 0.04 0.07 0.04 97 1003.6
20180619092830 66 52 0.0 0.0 0.04 0.07 0.04 97 1003.6
20180619092325 66 52 0.0 0.0 0.04 0.07 0.04 97 1003.5
20180619091331 66 52 0.0 2.0 0.04 0.07 0.04 96 1003.5
20180619090828 65 52 1.0 2.0 0.03 0.06 0.03 96 1003.5
20180619090337 65 52 0.0 0.0 0.03 0.06 0.03 96 1003.6
20180619085832 65 52 0.0 4.0 0.03 0.06 0.03 96 1003.4
20180619085329 65 52 1.0 4.0 0.03 0.06 0.03 96 1003.4
20180619084833 65 40 2.0 8.0 0.03 0.06 0.03 96 1003.5
20180619084318 65 83 3.0 8.0 0.01 0.04 0.01 96 1003.8
20180619083835 65 57 4.0 8.0 0.00 0.03 0.00 96 1003.8
20180619083318 65 90 2.0 4.0 0.00 0.03 0.00 96 1003.8
20180619082827 65 70 1.0 3.0 0.00 0.03 0.00 96 1003.8
20180619082326 65 67 1.0 4.0 0.00 0.03 0.00 96 1003.8
20180619081831 65 70 2.0 4.0 0.00 0.03 0.00 96 1003.9
20180619081337 64 70 2.0 4.0 0.00 0.03 0.00 96 1003.8
20180619080834 64 55 1.0 4.0 0.00 0.03 0.00 95 1003.8
20180619080323 64 84 2.0 5.0 0.00 0.03 0.00 95 1003.8
20180619075819 64 82 2.0 5.0 0.00 0.03 0.00 95 1003.8